Location: Chicago
(41.7813°N, 87.6051°W)
Time: 23:53:56
(UTC-05:00)

ISS - Visible Passes

Search period start: 27 May 2018 00:00
Search period end: 06 June 2018 00:00
Orbit: 402 x 407 km, 51.6° (Epoch: 28 May)

Date Brightness Start Highest point End Pass type
(mag) Time Alt. Az. Time Alt. Az. Time Alt. Az.
27 May -0.8 01:09:06 10° NW 01:09:32 13° NW 01:09:32 13° NW visible
27 May -1.0 21:02:49 10° WNW 21:05:19 20° NNW 21:07:50 10° NE visible
27 May -0.8 22:40:45 10° NNW 22:42:43 15° N 22:44:42 10° NE visible
28 May -1.4 00:17:02 10° NW 00:18:50 24° NNW 00:18:50 24° NNW visible
28 May -0.8 21:48:16 10° NW 21:50:13 15° N 21:52:09 10° NE visible
28 May -1.6 23:24:57 10° NW 23:27:35 22° NNE 23:28:12 21° NE visible
29 May -0.9 20:55:36 10° NW 20:57:42 16° N 20:59:47 10° NNE visible
29 May -1.1 22:32:49 10° NNW 22:35:07 17° NNE 22:37:26 10° ENE visible
30 May -1.4 00:08:54 10° NW 00:10:14 22° NW 00:10:14 22° NW visible
30 May -1.0 21:40:34 10° NNW 21:42:36 15° N 21:44:38 10° NE visible
30 May -2.4 23:16:45 10° NW 23:19:39 34° NNE 23:19:39 34° NNE visible
31 May -1.8 22:24:38 10° NW 22:27:24 24° NNE 22:29:06 16° ENE visible
01 Jun -1.2 00:00:51 10° WNW 00:01:44 17° WNW 00:01:44 17° WNW visible
01 Jun -1.4 21:32:29 10° NNW 21:34:55 19° NNE 21:37:20 10° ENE visible
01 Jun -3.1 23:08:34 10° NW 23:11:12 52° NNW 23:11:12 52° NNW visible
02 Jun -2.8 22:16:23 10° NW 22:19:30 41° NNE 22:20:41 28° ENE visible
02 Jun -0.9 23:53:06 10° WNW 23:53:19 11° W 23:53:19 11° W visible
03 Jun -2.1 21:24:13 10° NW 21:27:05 27° NNE 21:29:56 10° E visible
03 Jun -2.7 23:00:31 10° WNW 23:02:50 37° W 23:02:50 37° W visible
04 Jun -3.9 22:08:08 10° NW 22:11:26 88° NE 22:12:23 43° ESE visible
05 Jun -3.2 21:15:53 10° NW 21:19:05 49° NNE 21:21:58 12° ESE visible
05 Jun -1.7 22:52:52 10° W 22:54:36 19° WSW 22:54:36 19° WSW visible
